RYR1604 EDJA-EDHL

Flight info

Callsign RYR1604
Flight time 1h 0m
Altitude 24000
Route ALG1U ALG DCT LUPOL Z79 SUDEN/N0435F380 Z1 ETAGO DCT HAREM/N0437F390 DCT LOHRE DCT ELNAT/N0433F380 P605 NOLGO NOLGO1V
Aircraft A20N/M-SDE2E3FGHIRWXY/LB1

Departure

Time 2026-05-09 18:03
Airport Memmingen Allgau Airport (EDJA)

Arrival

Time 2026-05-09 19:04
Airport Lübeck Blankensee Airport (EDHL)
Time Latitude Longitude Altitude Speed Heading
2026-05-09 17:41 47.98868 10.23239 2079 ft 0 kts 49°
2026-05-09 17:57 47.98865 10.23233 2079 ft 1 kts 38°
2026-05-09 17:57 47.98859 10.23226 2077 ft 1 kts 23°
2026-05-09 17:57 47.98851 10.23222 2077 ft 1 kts
2026-05-09 17:57 47.98844 10.23221 2077 ft 1 kts 354°
2026-05-09 17:58 47.98836 10.23222 2077 ft 1 kts 339°
2026-05-09 17:58 47.98829 10.23227 2077 ft 1 kts 324°
2026-05-09 17:58 47.98823 10.23234 2078 ft 1 kts 309°
2026-05-09 17:58 47.98819 10.23243 2079 ft 1 kts 295°
2026-05-09 17:59 47.98816 10.23253 2079 ft 1 kts 280°
2026-05-09 17:59 47.98815 10.23254 2079 ft 0 kts 279°
2026-05-09 18:00 47.98812 10.23211 2079 ft 12 kts 261°
2026-05-09 18:00 47.98779 10.23071 2078 ft 17 kts 250°
2026-05-09 18:00 47.98720 10.22913 2079 ft 18 kts 243°
2026-05-09 18:01 47.98695 10.22769 2076 ft 6 kts 252°
2026-05-09 18:01 47.98662 10.22724 2079 ft 8 kts 199°
2026-05-09 18:01 47.98600 10.22716 2079 ft 10 kts 181°
2026-05-09 18:01 47.98521 10.22702 2079 ft 12 kts 204°
2026-05-09 18:02 47.98459 10.22611 2080 ft 14 kts 237°
2026-05-09 18:02 47.98388 10.22555 2082 ft 12 kts 162°
2026-05-09 18:02 47.98364 10.22639 2083 ft 10 kts 76°
2026-05-09 18:02 47.98371 10.22657 2083 ft 2 kts 59°
2026-05-09 18:03 47.98465 10.22896 2080 ft 62 kts 60°
2026-05-09 18:03 47.98796 10.23736 2075 ft 123 kts 59°
2026-05-09 18:03 47.99298 10.25016 2251 ft 153 kts 60°
2026-05-09 18:03 47.99811 10.26383 2943 ft 148 kts 63°
2026-05-09 18:04 48.00299 10.27714 3629 ft 144 kts 64°
2026-05-09 18:04 48.00801 10.29099 4026 ft 160 kts 64°
2026-05-09 18:04 48.01361 10.30650 4464 ft 179 kts 64°
2026-05-09 18:04 48.02027 10.32342 4935 ft 200 kts 60°
2026-05-09 18:05 48.02809 10.34198 5385 ft 221 kts 60°
2026-05-09 18:05 48.03626 10.36210 5996 ft 234 kts 67°
2026-05-09 18:05 48.03937 10.38572 6677 ft 236 kts 95°
2026-05-09 18:05 48.03426 10.40884 6938 ft 238 kts 124°
2026-05-09 18:06 48.02161 10.42545 7021 ft 252 kts 153°
2026-05-09 18:06 48.00461 10.43088 7019 ft 253 kts 182°
2026-05-09 18:06 47.98775 10.42296 7018 ft 260 kts 212°
2026-05-09 18:06 47.97531 10.40343 7035 ft 264 kts 242°
2026-05-09 18:07 47.97062 10.37691 7340 ft 271 kts 268°
2026-05-09 18:07 47.97272 10.34819 7949 ft 283 kts 285°
2026-05-09 18:07 47.97898 10.32053 9064 ft 279 kts 292°
2026-05-09 18:07 47.98678 10.29436 10129 ft 279 kts 295°
2026-05-09 18:08 47.99609 10.26798 10685 ft 298 kts 302°
2026-05-09 18:08 48.00924 10.24245 11008 ft 322 kts 312°
2026-05-09 18:08 48.02536 10.21784 11527 ft 336 kts 313°
2026-05-09 18:08 48.04172 10.19253 12391 ft 339 kts 313°
2026-05-09 18:09 48.05788 10.16711 13236 ft 343 kts 312°
2026-05-09 18:09 48.07434 10.14097 14056 ft 347 kts 312°
2026-05-09 18:09 48.09098 10.11440 14808 ft 350 kts 312°
2026-05-09 18:09 48.10773 10.08765 15546 ft 354 kts 312°
2026-05-09 18:10 48.12465 10.06064 16266 ft 357 kts 312°
2026-05-09 18:10 48.13021 10.05178 16506 ft 359 kts 312°
2026-05-09 18:10 48.15884 10.00605 17720 ft 364 kts 312°
2026-05-09 18:10 48.17627 9.97818 18418 ft 368 kts 312°
2026-05-09 18:11 48.19383 9.95006 19031 ft 372 kts 312°
2026-05-09 18:11 48.21143 9.92142 19638 ft 375 kts 309°
2026-05-09 18:11 48.22705 9.88997 20246 ft 377 kts 302°
2026-05-09 18:11 48.24083 9.85627 20846 ft 381 kts 301°
2026-05-09 18:12 48.25484 9.82228 21454 ft 384 kts 301°
2026-05-09 18:12 48.26900 9.78811 22044 ft 388 kts 301°
2026-05-09 18:12 48.28331 9.75358 22637 ft 391 kts 301°
2026-05-09 18:12 48.29774 9.71870 23221 ft 395 kts 301°
2026-05-09 18:13 48.31227 9.68348 23723 ft 399 kts 301°
2026-05-09 18:13 48.32689 9.64798 23929 ft 399 kts 301°
2026-05-09 18:13 48.34148 9.61251 23996 ft 399 kts 301°
2026-05-09 18:13 48.35608 9.57698 24004 ft 399 kts 301°
2026-05-09 18:14 48.37063 9.54150 24005 ft 399 kts 301°
2026-05-09 18:14 48.38757 9.50849 24003 ft 401 kts 314°
2026-05-09 18:14 48.40979 9.48304 24009 ft 404 kts 329°
2026-05-09 18:14 48.43556 9.46718 24008 ft 409 kts 343°
2026-05-09 18:15 48.46384 9.46180 24009 ft 413 kts 357°
2026-05-09 18:15 48.49259 9.46198 24012 ft 413 kts 358°
2026-05-09 18:15 48.52140 9.46217 24013 ft 413 kts 358°
2026-05-09 18:15 48.55023 9.46224 24014 ft 413 kts 357°
2026-05-09 18:16 48.57893 9.46195 24015 ft 413 kts 357°
2026-05-09 18:16 48.60770 9.46156 24016 ft 413 kts 357°
2026-05-09 18:16 48.63658 9.46116 24056 ft 416 kts 357°
2026-05-09 18:16 48.66564 9.46079 24522 ft 417 kts 357°
2026-05-09 18:17 48.68487 9.46057 24898 ft 418 kts 357°
2026-05-09 18:17 48.71406 9.46024 25381 ft 421 kts 357°
2026-05-09 18:17 48.74343 9.45979 25846 ft 423 kts 356°
2026-05-09 18:17 48.77291 9.45848 26293 ft 426 kts 355°
2026-05-09 18:18 48.80266 9.45677 26693 ft 429 kts 355°
2026-05-09 18:18 48.83267 9.45503 27132 ft 432 kts 355°
2026-05-09 18:18 48.86286 9.45336 27558 ft 435 kts 355°
2026-05-09 18:18 48.89326 9.45176 27952 ft 438 kts 355°
2026-05-09 18:19 48.92348 9.45021 28334 ft 441 kts 355°
2026-05-09 18:19 48.98533 9.44709 29079 ft 447 kts 355°
2026-05-09 18:19 49.01657 9.44551 29443 ft 449 kts 355°
2026-05-09 18:20 49.04791 9.44392 29795 ft 452 kts 355°
2026-05-09 18:20 49.07946 9.44232 30126 ft 455 kts 355°
2026-05-09 18:20 49.11126 9.44069 30446 ft 457 kts 355°
2026-05-09 18:20 49.14320 9.43906 30751 ft 460 kts 355°
2026-05-09 18:21 49.17528 9.43741 31068 ft 462 kts 355°
2026-05-09 18:21 49.20745 9.43577 31422 ft 463 kts 355°
2026-05-09 18:21 49.23962 9.43412 31841 ft 462 kts 356°
2026-05-09 18:21 49.27172 9.43248 32255 ft 461 kts 356°
2026-05-09 18:22 49.30343 9.43085 32643 ft 461 kts 356°
2026-05-09 18:22 49.33547 9.42919 33043 ft 460 kts 356°
2026-05-09 18:22 49.36746 9.42755 33437 ft 459 kts 356°
2026-05-09 18:22 49.39936 9.42590 33828 ft 459 kts 356°
2026-05-09 18:23 49.43126 9.42425 34164 ft 458 kts 356°
2026-05-09 18:23 49.46308 9.42261 34479 ft 457 kts 356°
2026-05-09 18:23 49.49483 9.42097 34810 ft 456 kts 356°
2026-05-09 18:23 49.52660 9.41933 35107 ft 456 kts 356°
2026-05-09 18:24 49.55825 9.41769 35404 ft 455 kts 355°
2026-05-09 18:24 49.58993 9.41605 35682 ft 455 kts 355°
2026-05-09 18:24 49.62160 9.41592 35951 ft 456 kts
2026-05-09 18:25 49.68483 9.42551 36473 ft 456 kts
2026-05-09 18:25 49.71648 9.43044 36714 ft 456 kts
2026-05-09 18:25 49.74799 9.43532 36969 ft 455 kts
2026-05-09 18:25 49.77947 9.44025 37187 ft 455 kts
2026-05-09 18:26 49.81096 9.44524 37398 ft 455 kts
2026-05-09 18:26 49.84205 9.45020 37623 ft 454 kts
2026-05-09 18:26 49.87348 9.45523 37844 ft 454 kts
2026-05-09 18:26 49.90496 9.46028 38032 ft 454 kts
2026-05-09 18:27 49.93638 9.46534 38050 ft 454 kts
2026-05-09 18:27 49.99904 9.47544 38049 ft 452 kts
2026-05-09 18:28 50.06180 9.48557 38050 ft 454 kts
2026-05-09 18:28 50.12492 9.49633 38053 ft 459 kts
2026-05-09 18:28 50.15625 9.50196 38052 ft 448 kts
2026-05-09 18:29 50.18686 9.50745 38058 ft 449 kts
2026-05-09 18:29 50.24944 9.51854 38052 ft 454 kts
2026-05-09 18:30 50.31219 9.52968 38055 ft 452 kts
2026-05-09 18:30 50.37481 9.54079 38061 ft 453 kts
2026-05-09 18:31 50.43699 9.55187 38062 ft 452 kts
2026-05-09 18:31 50.49973 9.56307 38063 ft 453 kts
2026-05-09 18:32 50.56205 9.57423 38060 ft 453 kts
2026-05-09 18:32 50.62471 9.58548 38062 ft 452 kts
2026-05-09 18:33 50.68740 9.59676 38064 ft 452 kts
2026-05-09 18:33 50.75012 9.60808 38068 ft 453 kts
2026-05-09 18:34 50.81229 9.61932 38074 ft 453 kts
2026-05-09 18:34 50.87496 9.63069 38061 ft 453 kts
2026-05-09 18:35 50.93760 9.64209 38064 ft 453 kts
2026-05-09 18:35 51.00018 9.65350 38066 ft 453 kts
2026-05-09 18:36 51.06282 9.66496 38063 ft 453 kts
2026-05-09 18:36 51.12551 9.67647 38063 ft 453 kts
2026-05-09 18:37 51.18552 9.68749 38075 ft 453 kts
2026-05-09 18:37 51.24819 9.69845 38084 ft 453 kts
2026-05-09 18:38 51.31055 9.70829 38086 ft 453 kts
2026-05-09 18:38 51.37330 9.71834 38082 ft 453 kts
2026-05-09 18:40 51.62402 9.76312 38089 ft 453 kts
2026-05-09 18:41 51.68659 9.77503 38095 ft 453 kts
2026-05-09 18:41 51.74872 9.78684 38091 ft 452 kts
2026-05-09 18:42 51.81122 9.79876 38092 ft 452 kts
2026-05-09 18:42 51.87381 9.81073 38093 ft 452 kts
2026-05-09 18:43 51.93642 9.82287 37825 ft 453 kts
2026-05-09 18:43 51.96770 9.82933 37548 ft 452 kts
2026-05-09 18:43 51.99854 9.83586 37286 ft 452 kts
2026-05-09 18:43 52.02978 9.84248 37024 ft 453 kts
2026-05-09 18:44 52.06105 9.84909 36757 ft 453 kts
2026-05-09 18:44 52.09235 9.85569 36502 ft 453 kts
2026-05-09 18:44 52.12365 9.86228 36244 ft 453 kts
2026-05-09 18:44 52.15492 9.86887 35987 ft 453 kts
2026-05-09 18:45 52.18627 9.87548 35738 ft 454 kts
2026-05-09 18:45 52.21771 9.88212 35485 ft 454 kts
2026-05-09 18:45 52.24909 9.88876 35250 ft 454 kts
2026-05-09 18:45 52.28052 9.89541 34921 ft 456 kts
2026-05-09 18:46 52.31164 9.90201 34414 ft 457 kts
2026-05-09 18:46 52.34322 9.90872 33777 ft 457 kts
2026-05-09 18:46 52.37474 9.91543 33100 ft 456 kts
2026-05-09 18:46 52.40616 9.92213 32444 ft 456 kts
2026-05-09 18:47 52.43772 9.92886 31802 ft 458 kts
2026-05-09 18:47 52.46940 9.93563 31173 ft 460 kts
2026-05-09 18:47 52.50123 9.94244 30557 ft 462 kts
2026-05-09 18:47 52.53309 9.94927 29917 ft 460 kts
2026-05-09 18:48 52.56473 9.95606 29218 ft 456 kts
2026-05-09 18:48 52.59612 9.96281 28531 ft 453 kts
2026-05-09 18:48 52.62682 9.96942 27878 ft 449 kts
2026-05-09 18:48 52.65767 9.97607 27223 ft 445 kts
2026-05-09 18:49 52.68826 9.98267 26581 ft 441 kts
2026-05-09 18:49 52.71857 9.98922 25962 ft 438 kts
2026-05-09 18:49 52.74863 9.99573 25402 ft 433 kts
2026-05-09 18:49 52.77815 10.00214 25166 ft 421 kts
2026-05-09 18:50 52.80723 10.00845 24868 ft 423 kts
2026-05-09 18:50 52.83653 10.01480 24411 ft 425 kts
2026-05-09 18:50 52.86580 10.02116 23939 ft 420 kts
2026-05-09 18:50 52.89459 10.02744 23438 ft 415 kts
2026-05-09 18:51 52.92306 10.03367 22892 ft 410 kts
2026-05-09 18:51 52.95128 10.03984 22335 ft 410 kts
2026-05-09 18:51 52.97956 10.04603 21640 ft 410 kts
2026-05-09 18:51 53.00787 10.05223 20910 ft 410 kts
2026-05-09 18:52 53.03613 10.05842 20188 ft 410 kts
2026-05-09 18:52 53.06442 10.06464 19486 ft 410 kts
2026-05-09 18:52 53.09266 10.07085 18798 ft 409 kts
2026-05-09 18:52 53.12082 10.07705 18073 ft 408 kts
2026-05-09 18:53 53.14898 10.08324 17300 ft 407 kts
2026-05-09 18:53 53.17660 10.08933 16562 ft 405 kts
2026-05-09 18:53 53.20449 10.09552 15827 ft 403 kts
2026-05-09 18:53 53.23231 10.10166 15103 ft 401 kts
2026-05-09 18:54 53.25991 10.10777 14406 ft 399 kts
2026-05-09 18:54 53.28742 10.11386 13689 ft 397 kts
2026-05-09 18:54 53.31477 10.11998 12924 ft 395 kts
2026-05-09 18:54 53.34197 10.12610 12173 ft 393 kts
2026-05-09 18:55 53.36893 10.13208 11450 ft 390 kts
2026-05-09 18:55 53.39573 10.13794 10738 ft 387 kts
2026-05-09 18:55 53.42227 10.14365 10018 ft 380 kts
2026-05-09 18:55 53.44810 10.14911 9257 ft 368 kts
2026-05-09 18:56 53.47317 10.15429 8510 ft 358 kts
2026-05-09 18:56 53.49761 10.15919 7777 ft 349 kts
2026-05-09 18:56 53.52154 10.16382 7058 ft 342 kts
2026-05-09 18:56 53.54495 10.16819 6339 ft 336 kts
2026-05-09 18:57 53.56798 10.17237 5587 ft 330 kts
2026-05-09 18:57 53.58961 10.18153 5152 ft 312 kts 28°
2026-05-09 18:57 53.60727 10.19936 5004 ft 288 kts 34°
2026-05-09 18:57 53.62367 10.21680 4854 ft 269 kts 34°
2026-05-09 18:58 53.63903 10.23312 4688 ft 252 kts 34°
2026-05-09 18:58 53.65352 10.24848 4421 ft 242 kts 34°
2026-05-09 18:58 53.66749 10.26328 4136 ft 232 kts 34°
2026-05-09 18:58 53.68103 10.27764 3715 ft 229 kts 34°
2026-05-09 18:59 53.69448 10.29192 3270 ft 228 kts 34°
2026-05-09 18:59 53.70696 10.30756 3037 ft 224 kts 53°
2026-05-09 18:59 53.71432 10.33155 3012 ft 240 kts 70°
2026-05-09 18:59 53.72044 10.35779 3001 ft 239 kts 71°
2026-05-09 19:00 53.72899 10.38182 3016 ft 243 kts 50°
2026-05-09 19:00 53.74860 10.42724 3000 ft 235 kts 69°
2026-05-09 19:00 53.75408 10.45213 2995 ft 217 kts 75°
2026-05-09 19:01 53.75856 10.47651 2914 ft 224 kts 74°
2026-05-09 19:01 53.76344 10.50151 2584 ft 224 kts 75°
2026-05-09 19:01 53.76824 10.52649 2267 ft 222 kts 74°
2026-05-09 19:01 53.77299 10.55120 1964 ft 220 kts 74°
2026-05-09 19:02 53.77770 10.57566 1664 ft 217 kts 74°
2026-05-09 19:02 53.78078 10.59167 1462 ft 215 kts 74°
2026-05-09 19:02 53.78536 10.61543 1164 ft 208 kts 73°
2026-05-09 19:02 53.78961 10.63750 936 ft 184 kts 73°
2026-05-09 19:03 53.79444 10.66266 614 ft 156 kts 72°
2026-05-09 19:03 53.79661 10.67393 469 ft 142 kts 72°
2026-05-09 19:03 53.79950 10.68893 280 ft 127 kts 72°
2026-05-09 19:03 53.80297 10.70713 67 ft 117 kts 72°
2026-05-09 19:04 53.80439 10.71481 61 ft 78 kts 72°
2026-05-09 19:04 53.80520 10.71877 54 ft 18 kts 59°
2026-05-09 19:04 53.80570 10.71923 53 ft 10 kts 332°
2026-05-09 19:04 53.80614 10.71801 57 ft 14 kts 294°
2026-05-09 19:05 53.80620 10.71776 58 ft 0 kts 294°
2026-05-09 19:05 53.80632 10.71730 58 ft 11 kts 294°
2026-05-09 19:05 53.80659 10.71581 61 ft 15 kts 266°
2026-05-09 19:05 53.80625 10.71390 59 ft 19 kts 252°
2026-05-09 19:06 53.80582 10.71166 59 ft 21 kts 252°
2026-05-09 19:06 53.80535 10.70911 57 ft 24 kts 253°
2026-05-09 19:06 53.80485 10.70645 57 ft 22 kts 252°
2026-05-09 19:06 53.80440 10.70411 57 ft 21 kts 252°
2026-05-09 19:07 53.80408 10.70244 61 ft 15 kts 252°
2026-05-09 19:07 53.80388 10.70165 61 ft 1 kts 238°
2026-05-09 19:07 53.80391 10.70109 55 ft 0 kts 311°
2026-05-09 19:07 53.80409 10.70096 59 ft 0 kts 335°